#timestamp,LO_Frequency,Hit,StdDev 
1635397245.4,286047003.7,E
1635397255.3,286047002.4,N
1635397275.2,286046999.6,P
1635397295.0,286047001.0,N
1635397295.9,286047001.0,N
1635397315.8,286046998.7,N
1635397335.6,286046999.0,N
1635397355.4,286046997.1,N
1635397375.3,286046996.7,N
1635397395.1,286046998.7,N
1635397415.9,286047000.3,N
1635397435.7,286047002.6,N
1635397455.5,286046998.1,N
1635397475.4,286046998.5,N
1635397495.2,286046999.3,N
1635397515.0,286046999.2,N
1635397515.9,286046999.2,N
1635397535.8,286046995.0,Y
1635397555.6,286046997.9,P
1635397575.5,286046998.3,N
1635397595.3,286047001.1,N
1635397615.1,286046998.3,N
1635397635.9,286046998.8,N
1635397655.7,286046998.8,N
1635397675.6,286046998.1,N
1635397695.4,286047000.7,N
1635397715.2,286047000.7,N
1635397735.1,286047000.8,N
1635397736.0,286047000.8,N
1635397755.8,286047000.9,N
1635397775.6,286047002.3,N
1635397795.5,286047002.2,N
1635397815.3,286047001.3,N
1635397835.2,286046999.7,N
1635397855.9,286047001.5,N
1635397875.7,286047002.8,N
1635397895.6,286047000.2,N
1635397915.4,286047005.8,Y
1635397935.2,286047002.9,P
1635397955.1,286047004.2,P
1635397956.0,286047004.2,N
1635397975.8,286047002.4,N
1635397995.7,286047002.3,N
1635398015.5,286047002.5,N
1635398035.3,286047003.9,Y
1635398055.2,286047000.0,P
1635398075.0,286047000.0,N
1635398075.9,286047000.0,N
1635398095.8,286046999.1,N
1635398115.6,286046998.7,N
1635398135.4,286046998.8,N
1635398155.3,286046998.3,N
1635398175.1,286046999.4,N
1635398195.8,286046997.5,N
1635398215.7,286046995.4,Y
1635398235.5,286046998.6,P
1635398255.4,286046999.4,N
1635398275.2,286046997.7,P
1635398295.0,286046998.0,N
1635398295.9,286046998.0,N
1635398315.8,286047002.7,Y
1635398335.6,286047003.2,P
1635398355.5,286047003.7,N
1635398375.3,286047004.2,N
1635398395.1,286047003.1,N
1635398415.9,286047000.3,N
1635398435.7,286046999.2,N
1635398455.5,286046998.1,N
1635398475.4,286047002.0,N
1635398495.2,286047003.4,N
1635398515.1,286047005.3,N
1635398516.0,286047005.3,N
1635398535.8,286047003.3,N
1635398555.6,286047005.1,N
1635398575.5,286047003.7,N
1635398595.3,286047005.2,N
1635398615.1,286047001.3,N
1635398635.9,286047001.4,N
1635398655.7,286047001.6,N
1635398675.6,286047002.7,N
1635398695.4,286046999.7,N
1635398715.2,286047002.5,N
1635398735.1,286047002.1,N
1635398736.0,286047002.1,N
1635398755.8,286047004.6,N
1635398775.6,286047006.5,Y
1635398795.5,286047003.1,P
1635398815.3,286047002.3,P
1635398835.2,286046999.3,N
1635398855.9,286046999.2,N
1635398875.7,286046999.3,N
1635398895.6,286047001.2,N
1635398915.4,286047001.6,N
1635398935.2,286047000.5,N
1635398955.1,286046998.8,N
1635398956.0,286046998.8,N
1635398975.8,286046999.7,N
1635398995.7,286047002.5,N
1635399015.5,286047000.8,N
1635399035.3,286047001.6,N
1635399055.2,286047003.1,N
1635399075.0,286047002.0,N
1635399075.9,286047002.0,N
1635399095.8,286047002.8,N
1635399115.6,286047002.6,N
1635399135.4,286047004.0,N
1635399155.3,286047003.5,N
1635399175.1,286047002.9,N
1635399195.9,286047006.0,Y
1635399215.7,286047005.2,P
1635399235.5,286047005.1,N
1635399255.4,286047008.3,P
1635399275.2,286047008.2,Y
1635399295.0,286047004.4,P
1635399295.9,286047004.4,P
1635399315.8,286047000.0,N
1635399335.6,286047000.5,N
1635399355.5,286047000.5,N
1635399375.3,286046998.5,N
1635399395.1,286046997.4,N
1635399415.9,286046998.7,N
1635399435.7,286047000.4,N
1635399455.5,286047000.9,N
1635399475.4,286046998.3,N
1635399495.2,286046999.2,N
1635399515.1,286047000.9,N
1635399516.0,286047000.9,N
1635399535.8,286046998.6,N
1635399555.6,286047000.0,N
1635399575.5,286046999.8,N
1635399595.3,286047000.3,N
1635399615.2,286046999.2,N
1635399635.9,286046999.4,N
1635399685.8,286046995.1,E
1635399695.7,286046998.9,N
1635399715.5,286047004.1,P
1635399735.4,286047003.4,N
1635399755.2,286047003.0,N
1635399775.0,286047004.7,N
1635399775.9,286047004.7,N
1635399795.8,286047005.6,N
1635399815.6,286047006.9,Y
1635399835.5,286047005.6,P
1635399855.3,286047007.6,P
1635399875.1,286047004.7,N
1635399895.9,286047003.0,N
1635399915.7,286047006.0,Y
1635399935.6,286047000.0,P
1635399955.4,286047002.3,N
1635399975.2,286046998.2,N
1635399995.1,286047000.9,N
1635399996.0,286047000.9,N
1635400015.8,286046998.7,N
1635400035.6,286046999.6,N
1635400055.5,286046997.4,N
1635400075.3,286046998.7,N
1635400095.2,286046998.5,N
1635400115.9,286047000.8,N
1635400135.7,286046999.0,N
1635400155.6,286046997.7,N
1635400175.4,286046998.8,N
1635400195.2,286046996.7,N
1635400215.1,286047011.9,Y
1635400216.0,286046998.9,P
1635400235.8,286046998.2,P
1635400255.7,286047001.5,N
1635400275.5,286047002.0,N
1635400295.3,286047000.8,N
1635400315.2,286046996.7,N
1635400335.0,286046995.3,N
1635400335.9,286046995.3,N
1635400355.8,286046994.9,N
1635400375.6,286046995.2,N
1635400395.4,286046999.3,N
1635400415.3,286046996.5,N
1635400435.1,286046995.4,N
1635400455.8,286046997.4,N
1635400475.7,286046995.9,N
1635400495.5,286046997.5,N
1635400515.4,286046996.8,N
1635400535.2,286046997.9,N
1635400555.0,286046997.7,N
1635400555.9,286046997.7,N
1635400575.8,286046997.0,N
1635400595.6,286047001.1,N
1635400615.4,286047001.0,N
1635400635.3,286047000.0,N
1635400655.1,286046999.9,N
1635400675.9,286046999.9,N
1635400695.7,286046999.7,N
1635400715.5,286047005.9,N
1635400735.4,286047002.0,N
1635400755.2,286046998.6,N
1635400775.0,286047000.9,N
1635400775.9,286047000.9,N
1635400795.8,286047000.7,N
